This is the latest recevied weather packets stored in our database for station/object KM8V-8. If no packets are shown the sender has not sent any weather packets the latest 10 day(s).
| Time | Temp. | Humidity | Pressure | Rain* | Wind** | Luminosity | Snow |
|---|---|---|---|---|---|---|---|
| 1777484120 | 10° C | 99% | 1009.1 hPa | 0.25 mm | - | 206 W/m² | - |
| 1777483822 | 10° C | 99% | 1009 hPa | 0.25 mm | - | 254 W/m² | - |
| 1777483523 | 10° C | 100% | 1009.1 hPa | 0.25 mm | - | 218 W/m² | - |
| 1777483222 | 10° C | 100% | 1009.1 hPa | 0.25 mm | - | 282 W/m² | - |
| 1777482922 | 10° C | 99% | 1009.2 hPa | 0.25 mm | - | 246 W/m² | - |
| 1777482629 | 10.56° C | 99% | 1009.2 hPa | 0.25 mm | - | 183 W/m² | - |
| 1777482329 | 10.56° C | 100% | 1009.1 hPa | 0.51 mm | - | 178 W/m² | - |
| 1777482029 | 10° C | 100% | 1009.2 hPa | 0.51 mm | - | 309 W/m² | - |
| 1777481729 | 10° C | 100% | 1009.1 hPa | 1.02 mm | - | 203 W/m² | - |
| 1777481429 | 10° C | 100% | 1009.2 hPa | 1.52 mm | - | 147 W/m² | - |
| 1777481129 | 10° C | 100% | 1009.2 hPa | 1.78 mm | - | 207 W/m² | - |
| 1777480829 | 10° C | 100% | 1009.2 hPa | 2.03 mm | - | 297 W/m² | - |
| 1777480529 | 10° C | 100% | 1009.1 hPa | 2.03 mm | - | 272 W/m² | - |
| 1777480229 | 9.44° C | 100% | 1009.1 hPa | 2.03 mm | - | 271 W/m² | - |
| 1777479929 | 9.44° C | 100% | 1009.4 hPa | 2.03 mm | - | 300 W/m² | - |
| 1777479630 | 9.44° C | 99% | 1009.6 hPa | 2.03 mm | - | 295 W/m² | - |
| 1777479330 | 9.44° C | 99% | 1009.7 hPa | 2.03 mm | - | 165 W/m² | - |
| 1777479030 | 9.44° C | 99% | 1009.7 hPa | 1.78 mm | - | 103 W/m² | - |
| 1777478729 | 9.44° C | 99% | 1009.8 hPa | 1.78 mm | - | 99 W/m² | - |
| 1777478430 | 9.44° C | 99% | 1010.1 hPa | 1.52 mm | - | 120 W/m² | - |
| 1777478129 | 10° C | 99% | 1010.4 hPa | 1.02 mm | - | 96 W/m² | - |
| 1777477832 | 10° C | 99% | 1010.4 hPa | 0.76 mm | - | 75 W/m² | - |
| 1777477530 | 10° C | 99% | 1010.2 hPa | 0.51 mm | - | 52 W/m² | - |
| 1777477232 | 10.56° C | 99% | 1010.1 hPa | 0 mm | - | 35 W/m² | - |
| 1777476930 | 10.56° C | 99% | 1009.9 hPa | 0 mm | - | 46 W/m² | - |
* Rain latest hour (hover to see other rain measurements)
** Current wind speed in m/s (hover to see current wind gust speed)